Flag for U.S.A. Weather past 2 weeks in Unalaska, Alaska, U.S.A.

Now
37 °F

Light rain. Mostly cloudy.


Feels Like: 27 °F
Forecast: 34 / 42 °F
Wind: 18 mph from Northwest

Location: Dutch Harbor


UV Index: 0 (Low)

Visibility: 8 mi


Pressure: 29.69 "Hg

Humidity: 76%

Dew point: 30 °F

Location of UnalaskaLocation

Historic Weather in Unalaska

°F

Unalaska temperature yesterday

Maximum temperature yesterday: 39 °F (at 5:56 PM)
Minimum temperature yesterday: 33 °F (at 6:56 AM)
Average temperature yesterday: 35 °F

Past Weeks' High & Low Weather Summary

 TemperatureHumidityPressure
High44 °F (Apr 12, 4:56 PM)93% (Apr 5, 6:58 AM)29.93 "Hg (Apr 5, 6:58 AM)
Low29 °F (Apr 7, 8:56 AM)55% (Apr 12, 4:56 PM)29.15 "Hg (Apr 4, 3:56 PM)
Average37 °F77%29.54 "Hg
* Reported Apr 4 3:56 PM — Apr 19 3:03 PM, Unalaska, Weather by CustomWeather, © 2014

Note: Actual official high and low records may vary slightly from our data, if they occured in-between our weather recording intervals... More about our weather records

Advertising

Historic Weather Conditions — Data for Previous 24 hours

 ConditionsComfort  
Time TempWeatherWind HumidityBarometerVisibility
3:03 PM
Apr 19
37 °FLight rain. Cloudy.20 mph75%29.65 "Hg8 mi
2:56 PM38 °FLight rain. Cloudy.23 mph76%29.65 "Hg8 mi
1:58 PM37 °FLight rain. Cloudy.24 mph81%29.62 "Hg8 mi
12:56 PM38 °FLight rain. Cloudy.14 mph76%29.62 "Hg10 mi
11:56 AM37 °FLight rain. Mostly cloudy.7 mph82%29.61 "Hg10 mi
11:03 AM36 °FLight rain. Mostly cloudy.12 mph87%29.58 "Hg8 mi
9:58 AM36 °FLight snow. Fog.15 mph81%29.57 "Hg2 mi
8:56 AM37 °FLight rain. Fog.16 mph76%29.57 "Hg6 mi
7:56 AM35 °FLight rain. Fog.13 mph85%29.54 "Hg6 mi
6:56 AM36 °FLight rain. Overcast.17 mph82%29.53 "Hg10 mi
5:56 AM34 °FLight rain. Mostly cloudy.9 mph88%29.52 "Hg10 mi
4:56 AM34 °FLight snow. Fog.9 mph88%29.51 "Hg4 mi
3:56 AM33 °FMostly cloudy.No wind85%29.50 "Hg10 mi
2:56 AM34 °FMostly cloudy.3 mph88%29.49 "Hg10 mi
1:56 AM33 °FLight rain. Mostly cloudy.No wind92%29.49 "Hg10 mi
12:56 AM33 °FPassing clouds.3 mph92%29.48 "Hg10 mi
11:59 PM
Apr 18
36 °FLight snow. Fog.17 mph81%29.48 "Hg2 mi
10:56 PM36 °FMostly cloudy.7 mph85%29.47 "Hg10 mi
9:56 PM34 °FLight snow. Cloudy.12 mph88%29.45 "Hg8 mi
8:56 PM36 °FLight rain. Mostly cloudy.8 mph85%29.44 "Hg10 mi
7:56 PM38 °FPartly sunny.10 mph73%29.42 "Hg10 mi
6:56 PM36 °FBroken clouds.6 mph85%29.41 "Hg10 mi
5:56 PM39 °FBroken clouds.7 mph70%29.40 "Hg10 mi
4:56 PM37 °FBroken clouds.5 mph79%29.41 "Hg10 mi
Weather by CustomWeather, © 2014

See weather overview